This is the latest recevied weather packets stored in our database for station/object VE4GLS. If no packets are shown the sender has not sent any weather packets the latest 10 day(s).
| Time | Temp. | Humidity | Pressure | Rain* | Wind** | Luminosity | Snow |
|---|---|---|---|---|---|---|---|
| 1777933994 | 5.56° C | 55% | 1003 hPa | 0 mm | - | - | - |
| 1777933954 | 5.56° C | 56% | 1002.9 hPa | 0 mm | - | - | - |
| 1777933394 | 5.56° C | 58% | 1002.9 hPa | 0 mm | - | - | - |
| 1777933055 | 5.56° C | 57% | 1002.7 hPa | 0 mm | - | - | - |
| 1777932795 | 5.56° C | 59% | 1002.6 hPa | 0 mm | - | - | - |
| 1777932193 | 6.11° C | 58% | 1002.5 hPa | 0 mm | - | - | - |
| 1777932155 | 6.11° C | 59% | 1002.4 hPa | 0 mm | - | - | - |
| 1777931593 | 5° C | 60% | 1002.2 hPa | 0 mm | - | - | - |
| 1777931254 | 5° C | 59% | 1002.2 hPa | 0 mm | - | - | - |
| 1777930993 | 5° C | 59% | 1002.2 hPa | 0 mm | - | - | - |
| 1777930395 | 5.56° C | 60% | 1002.1 hPa | 0 mm | - | - | - |
| 1777930355 | 5.56° C | 59% | 1002.2 hPa | 0 mm | - | - | - |
| 1777929794 | 6.11° C | 57% | 1002.1 hPa | 0 mm | - | - | - |
| 1777929455 | 6.11° C | 57% | 1001.9 hPa | 0 mm | - | - | - |
| 1777929194 | 6.11° C | 58% | 1001.9 hPa | 0 mm | - | - | - |
| 1777928593 | 6.11° C | 59% | 1001.8 hPa | 0 mm | - | - | - |
| 1777928555 | 6.11° C | 58% | 1001.8 hPa | 0 mm | - | - | - |
| 1777927993 | 6.11° C | 56% | 1001.7 hPa | 0 mm | - | - | - |
| 1777927655 | 6.67° C | 55% | 1001.6 hPa | 0 mm | - | - | - |
| 1777927395 | 6.67° C | 54% | 1001.5 hPa | 0 mm | - | - | - |
| 1777926794 | 7.22° C | 53% | 1001.3 hPa | 0 mm | - | - | - |
| 1777926756 | 7.22° C | 53% | 1001.2 hPa | 0 mm | - | - | - |
| 1777926193 | 7.78° C | 54% | 1001.1 hPa | 0 mm | - | - | - |
| 1777925855 | 7.78° C | 51% | 1001 hPa | 0 mm | - | - | - |
| 1777925594 | 7.78° C | 51% | 1001 hPa | 0 mm | - | - | - |
* Rain latest hour (hover to see other rain measurements)
** Current wind speed in m/s (hover to see current wind gust speed)